Time,TemperatureF,DewpointF,PressureIn,WindDirection,WindDirectionDegrees,WindSpeedMPH,WindSpeedGustMPH,Humidity,HourlyPrecipIn,Conditions,Clouds,dailyrainin,SoftwareType,DateUTC
2013-03-13 00:12:00,49.0,47.0,-100.00,North,-999,-999.0,-999.0,93,0.00,,,0.00,,2013-03-13 07:12:00,
2013-03-13 00:22:00,49.0,47.0,-100.00,North,-999,-999.0,-999.0,93,0.00,,,0.00,,2013-03-13 07:22:00,
2013-03-13 00:32:00,49.0,47.0,-100.00,North,-999,-999.0,-999.0,93,0.00,,,0.00,,2013-03-13 07:32:00,
2013-03-13 00:42:00,49.0,47.0,-100.00,North,-999,-999.0,-999.0,93,0.00,,,0.00,,2013-03-13 07:42:00,
2013-03-13 01:12:00,48.0,47.0,-100.00,North,-999,-999.0,-999.0,95,0.00,,,0.00,,2013-03-13 08:12:00,
2013-03-13 01:22:00,48.0,47.0,-100.00,North,-999,-999.0,-999.0,95,0.00,,,0.00,,2013-03-13 08:22:00,
2013-03-13 01:32:00,48.0,47.0,-100.00,North,-999,-999.0,-999.0,95,0.00,,,0.00,,2013-03-13 08:32:00,
2013-03-13 01:42:00,48.0,47.0,-100.00,North,-999,-999.0,-999.0,95,0.00,,,0.00,,2013-03-13 08:42:00,
2013-03-13 02:12:00,48.0,46.0,-100.00,North,-999,-999.0,-999.0,95,0.00,,,0.00,,2013-03-13 09:12:00,
2013-03-13 02:22:00,48.0,46.0,-100.00,North,-999,-999.0,-999.0,95,0.00,,,0.00,,2013-03-13 09:22:00,
2013-03-13 02:32:00,48.0,46.0,-100.00,North,-999,-999.0,-999.0,95,0.00,,,0.00,,2013-03-13 09:32:00,
2013-03-13 02:42:00,48.0,46.0,-100.00,North,-999,-999.0,-999.0,95,0.00,,,0.00,,2013-03-13 09:42:00,
2013-03-13 03:11:00,47.0,46.0,-100.00,North,-999,-999.0,-999.0,96,0.00,,,0.00,,2013-03-13 10:11:00,
2013-03-13 03:22:00,47.0,46.0,-100.00,North,-999,-999.0,-999.0,96,0.00,,,0.00,,2013-03-13 10:22:00,
2013-03-13 03:32:00,47.0,46.0,-100.00,North,-999,-999.0,-999.0,96,0.00,,,0.00,,2013-03-13 10:32:00,
2013-03-13 03:42:00,47.0,46.0,-100.00,North,-999,-999.0,-999.0,96,0.00,,,0.00,,2013-03-13 10:42:00,
2013-03-13 04:12:00,47.0,46.0,-100.00,North,-999,-999.0,-999.0,96,0.00,,,0.00,,2013-03-13 11:12:00,
2013-03-13 04:22:00,47.0,46.0,-100.00,North,-999,-999.0,-999.0,96,0.00,,,0.00,,2013-03-13 11:22:00,
2013-03-13 04:32:00,47.0,46.0,-100.00,North,-999,-999.0,-999.0,96,0.00,,,0.00,,2013-03-13 11:32:00,
2013-03-13 04:42:00,47.0,46.0,-100.00,North,-999,-999.0,-999.0,96,0.00,,,0.00,,2013-03-13 11:42:00,
2013-03-13 05:12:00,47.0,46.0,-100.00,North,-999,-999.0,-999.0,97,0.00,,,0.00,,2013-03-13 12:12:00,
2013-03-13 05:22:00,47.0,46.0,-100.00,North,-999,-999.0,-999.0,97,0.00,,,0.00,,2013-03-13 12:22:00,
2013-03-13 05:32:00,47.0,46.0,-100.00,North,-999,-999.0,-999.0,97,0.00,,,0.00,,2013-03-13 12:32:00,
2013-03-13 05:42:00,47.0,46.0,-100.00,North,-999,-999.0,-999.0,97,0.00,,,0.00,,2013-03-13 12:42:00,
2013-03-13 06:11:00,46.0,45.0,-100.00,North,-999,-999.0,-999.0,97,0.00,,,0.00,,2013-03-13 13:11:00,
2013-03-13 06:22:00,46.0,45.0,-100.00,North,-999,-999.0,-999.0,97,0.00,,,0.00,,2013-03-13 13:22:00,
2013-03-13 06:32:00,46.0,45.0,-100.00,North,-999,-999.0,-999.0,97,0.00,,,0.00,,2013-03-13 13:32:00,
2013-03-13 06:42:00,46.0,45.0,-100.00,North,-999,-999.0,-999.0,97,0.00,,,0.00,,2013-03-13 13:42:00,
2013-03-13 07:12:00,47.0,47.0,-100.00,North,-999,-999.0,-999.0,98,0.00,,,0.00,,2013-03-13 14:12:00,
2013-03-13 07:21:00,47.0,47.0,-100.00,North,-999,-999.0,-999.0,98,0.00,,,0.00,,2013-03-13 14:21:00,
2013-03-13 07:33:00,47.0,47.0,-100.00,North,-999,-999.0,-999.0,98,0.00,,,0.00,,2013-03-13 14:33:00,
2013-03-13 07:42:00,47.0,47.0,-100.00,North,-999,-999.0,-999.0,98,0.00,,,0.00,,2013-03-13 14:42:00,
2013-03-13 08:12:00,49.0,48.0,-100.00,North,-999,-999.0,-999.0,98,0.00,,,0.00,,2013-03-13 15:12:00,
2013-03-13 08:22:00,49.0,48.0,-100.00,North,-999,-999.0,-999.0,98,0.00,,,0.00,,2013-03-13 15:22:00,
2013-03-13 08:32:00,49.0,48.0,-100.00,North,-999,-999.0,-999.0,98,0.00,,,0.00,,2013-03-13 15:32:00,
2013-03-13 08:42:00,49.0,48.0,-100.00,North,-999,-999.0,-999.0,98,0.00,,,0.00,,2013-03-13 15:42:00,
2013-03-13 09:12:00,49.0,48.0,-100.00,North,-999,-999.0,-999.0,98,0.00,,,0.00,,2013-03-13 16:12:00,
2013-03-13 09:22:00,49.0,48.0,-100.00,North,-999,-999.0,-999.0,98,0.00,,,0.00,,2013-03-13 16:22:00,
2013-03-13 09:32:00,49.0,48.0,-100.00,North,-999,-999.0,-999.0,98,0.00,,,0.00,,2013-03-13 16:32:00,
2013-03-13 09:42:00,49.0,48.0,-100.00,North,-999,-999.0,-999.0,98,0.00,,,0.00,,2013-03-13 16:42:00,
2013-03-13 10:12:00,50.0,49.0,-100.00,North,-999,-999.0,-999.0,98,0.00,,,0.00,,2013-03-13 17:12:00,
2013-03-13 10:22:00,50.0,49.0,-100.00,North,-999,-999.0,-999.0,98,0.00,,,0.00,,2013-03-13 17:22:00,
2013-03-13 10:32:00,50.0,49.0,-100.00,North,-999,-999.0,-999.0,98,0.00,,,0.00,,2013-03-13 17:32:00,
2013-03-13 10:42:00,50.0,49.0,-100.00,North,-999,-999.0,-999.0,98,0.00,,,0.00,,2013-03-13 17:42:00,
2013-03-13 11:12:00,53.0,51.0,-100.00,North,-999,-999.0,-999.0,95,0.00,,,0.00,,2013-03-13 18:12:00,
2013-03-13 11:22:00,53.0,51.0,-100.00,North,-999,-999.0,-999.0,95,0.00,,,0.00,,2013-03-13 18:22:00,
2013-03-13 11:33:00,53.0,51.0,-100.00,North,-999,-999.0,-999.0,95,0.00,,,0.00,,2013-03-13 18:33:00,
2013-03-13 11:42:00,53.0,51.0,-100.00,North,-999,-999.0,-999.0,95,0.00,,,0.00,,2013-03-13 18:42:00,
2013-03-13 12:12:00,63.0,51.0,-100.00,North,-999,-999.0,-999.0,66,0.00,,,0.00,,2013-03-13 19:12:00,
2013-03-13 12:22:00,63.0,51.0,-100.00,North,-999,-999.0,-999.0,66,0.00,,,0.00,,2013-03-13 19:22:00,
2013-03-13 13:12:00,67.0,50.0,-100.00,North,-999,-999.0,-999.0,55,-99.99,,,0.00,,2013-03-13 20:12:00,
2013-03-13 13:22:00,67.0,50.0,-100.00,North,-999,-999.0,-999.0,55,-99.99,,,0.00,,2013-03-13 20:22:00,
2013-03-13 14:12:00,62.0,49.0,-100.00,North,-999,-999.0,-999.0,62,-99.99,,,-99.99,,2013-03-13 21:12:00,
2013-03-13 14:22:00,62.0,49.0,-100.00,North,-999,-999.0,-999.0,62,-99.99,,,-99.99,,2013-03-13 21:22:00,
2013-03-13 14:32:00,62.0,49.0,-100.00,North,-999,-999.0,-999.0,62,-99.99,,,-99.99,,2013-03-13 21:32:00,
2013-03-13 14:41:00,62.0,49.0,-100.00,North,-999,-999.0,-999.0,62,-99.99,,,-99.99,,2013-03-13 21:41:00,
2013-03-13 15:12:00,63.0,49.0,-100.00,North,-999,-999.0,-999.0,61,0.00,,,0.00,,2013-03-13 22:12:00,
2013-03-13 15:22:00,63.0,49.0,-100.00,North,-999,-999.0,-999.0,61,0.00,,,0.00,,2013-03-13 22:22:00,
2013-03-13 15:32:00,63.0,49.0,-100.00,North,-999,-999.0,-999.0,61,0.00,,,0.00,,2013-03-13 22:32:00,
2013-03-13 15:42:00,63.0,49.0,-100.00,North,-999,-999.0,-999.0,61,0.00,,,0.00,,2013-03-13 22:42:00,
2013-03-13 16:12:00,70.0,50.0,-100.00,North,-999,-999.0,-999.0,49,0.00,,,0.00,,2013-03-13 23:12:00,
2013-03-13 16:22:00,70.0,50.0,-100.00,North,-999,-999.0,-999.0,49,0.00,,,0.00,,2013-03-13 23:22:00,
2013-03-13 17:12:00,71.0,49.0,-100.00,North,-999,-999.0,-999.0,45,0.00,,,0.00,,2013-03-14 00:12:00,
2013-03-13 17:22:00,71.0,49.0,-100.00,North,-999,-999.0,-999.0,45,0.00,,,0.00,,2013-03-14 00:22:00,
2013-03-13 17:32:00,71.0,49.0,-100.00,North,-999,-999.0,-999.0,45,0.00,,,0.00,,2013-03-14 00:32:00,
2013-03-13 17:42:00,71.0,49.0,-100.00,North,-999,-999.0,-999.0,45,0.00,,,0.00,,2013-03-14 00:42:00,
2013-03-13 18:12:00,60.0,49.0,-100.00,North,-999,-999.0,-999.0,67,0.00,,,0.00,,2013-03-14 01:12:00,
2013-03-13 18:22:00,60.0,49.0,-100.00,North,-999,-999.0,-999.0,67,0.00,,,0.00,,2013-03-14 01:22:00,
2013-03-13 18:32:00,60.0,49.0,-100.00,North,-999,-999.0,-999.0,67,0.00,,,0.00,,2013-03-14 01:32:00,
2013-03-13 18:42:00,60.0,49.0,-100.00,North,-999,-999.0,-999.0,67,0.00,,,0.00,,2013-03-14 01:42:00,
2013-03-13 19:12:00,55.0,48.0,-100.00,North,-999,-999.0,-999.0,78,0.00,,,0.00,,2013-03-14 02:12:00,
2013-03-13 19:22:00,55.0,48.0,-100.00,North,-999,-999.0,-999.0,78,0.00,,,0.00,,2013-03-14 02:22:00,
2013-03-13 19:32:00,55.0,48.0,-100.00,North,-999,-999.0,-999.0,78,0.00,,,0.00,,2013-03-14 02:32:00,
2013-03-13 19:42:00,55.0,48.0,-100.00,North,-999,-999.0,-999.0,78,0.00,,,0.00,,2013-03-14 02:42:00,
2013-03-13 20:12:00,57.0,49.0,-100.00,North,-999,-999.0,-999.0,74,0.00,,,0.00,,2013-03-14 03:12:00,
2013-03-13 20:22:00,57.0,49.0,-100.00,North,-999,-999.0,-999.0,74,0.00,,,0.00,,2013-03-14 03:22:00,
2013-03-13 20:32:00,57.0,49.0,-100.00,North,-999,-999.0,-999.0,74,0.00,,,0.00,,2013-03-14 03:32:00,
2013-03-13 20:42:00,57.0,49.0,-100.00,North,-999,-999.0,-999.0,74,0.00,,,0.00,,2013-03-14 03:42:00,
2013-03-13 21:12:00,54.0,48.0,-100.00,North,-999,-999.0,-999.0,79,0.00,,,0.00,,2013-03-14 04:12:00,
2013-03-13 21:22:00,54.0,48.0,-100.00,North,-999,-999.0,-999.0,79,0.00,,,0.00,,2013-03-14 04:22:00,
2013-03-13 21:32:00,54.0,48.0,-100.00,North,-999,-999.0,-999.0,79,0.00,,,0.00,,2013-03-14 04:32:00,
2013-03-13 21:42:00,54.0,48.0,-100.00,North,-999,-999.0,-999.0,79,0.00,,,0.00,,2013-03-14 04:42:00,
2013-03-13 22:12:00,52.0,48.0,-100.00,North,-999,-999.0,-999.0,84,0.00,,,0.00,,2013-03-14 05:12:00,
2013-03-13 22:22:00,52.0,48.0,-100.00,North,-999,-999.0,-999.0,84,0.00,,,0.00,,2013-03-14 05:22:00,
2013-03-13 22:33:00,52.0,48.0,-100.00,North,-999,-999.0,-999.0,84,0.00,,,0.00,,2013-03-14 05:33:00,
2013-03-13 22:42:00,52.0,48.0,-100.00,North,-999,-999.0,-999.0,84,0.00,,,0.00,,2013-03-14 05:42:00,
2013-03-13 23:12:00,52.0,47.0,-100.00,North,-999,-999.0,-999.0,83,0.00,,,0.00,,2013-03-14 06:12:00,
2013-03-13 23:22:00,52.0,47.0,-100.00,North,-999,-999.0,-999.0,83,0.00,,,0.00,,2013-03-14 06:22:00,
2013-03-13 23:32:00,52.0,47.0,-100.00,North,-999,-999.0,-999.0,83,0.00,,,0.00,,2013-03-14 06:32:00,
2013-03-13 23:42:00,52.0,47.0,-100.00,North,-999,-999.0,-999.0,83,0.00,,,0.00,,2013-03-14 06:42:00,